Accueil
METAR-TAF:

METAR-TAF

Aéroports :

P11-b, Pays-Bas

Plate-forme pétrolière

latitude: 52-21-36N, longitude: 3-20-30E, altitude: 24 m

Observation

Le bulletin a été fait il y a 22 minutes, à 01:25 UTC
Vent 25 kt de sud-ouest
Température 16°C
Humidité 94%
Pression 1013 hPa
Visibilité 10 km ou plus
Ciel couvert à une hauteur de 3100 ft

METAR: EHPG 240125Z AUTO 22025KT 9999 OVC031 16/15 Q1013

Heure: 03:47 (01:47 UTC)


TAF: absent

Observations et prévisions météorologiques de plus de 4000 aéroports (messages METAR et TAF).

Les stations disponibles sont représentées par des disques jaunes et rouges sur la carte.

Passer la souris dessus pour voir le nom de la station.

Cliquer dessus pour voir les observations et prévisions météorologiques.

Pour changer de carte: cliquez sur les boutons verts avec une croix noire pour zoomer, sur le bouton vert avec un tiret pour effectuer un zoom arrière, ou sur les flèches vertes pour les cartes adjacentes.


METAR-TAF: